Content
SEND FEEDBACK

Daily
Averages
Monthly
Summary
United States of America

AGANA, GUAM


Home > North America > United States > Guam
Elevation: 246 feet     Latitude: 13 29N     Longitude: 144 48E

WEATHER
 
SELECT A DAY
Number of Records: 209,044;   Date Range: 1/1/95 - 7/29/14
 
SHARE

PRINT THIS DATA

[ ← Previous Day ]
WEATHER ALMANAC - FEBRUARY 1, 2013
[ Next Day → ]
[ °C ]   °F
Weather ElementAverageHighLow
Temperature78.4 °F84 °F (12:54 pm)75 °F (1:54 am)
Dewpoint66.7 °F70 °F (1:54 am)63 °F (11:54 pm)
Humidity67.5 %84 % (1:54 am)54 % (2:54 pm)
Barometer30.02 in30.08 in (8:54 am)29.97 in (4:54 pm)
Wind Speed18.8 mph25.3 mph (12:54 pm)
Wind Gust34.5 mph (12:54 pm)
Weather ElementAverage
Visibility10 mi
Wind DirectionNE (41.3 °)

Weather ElementTotal
Precipitation---
Cooling Degree Days14.5 (Base 65)
Growing Degree Days29.5 (Base 50)
Averaged from 23 records on February 1, 2013
WEATHER CONDITIONS BREAKOUT
WIND DIRECTION BREAKOUT
WEATHER BY HOUR - FEBRUARY 1, 2013
[ °C ]   °F
Local TimeTemperatureDewpointHumidityBarometerVisibilityWind DirectionWind SpeedGust SpeedPrecipitationEventsConditions
1:54 AM75.0 °F70.0 °F84 %30.02 in10.0 miNNE (20°)20.7 mph28.8 mphMostly Cloudy
2:54 AM75.0 °F70.0 °F84 %30.01 in10.0 miNNE (30°)17.3 mph26.5 mphScattered Clouds
3:54 AM75.0 °F69.1 °F82 %30.00 in10.0 miNNE (20°)15.0 mph24.2 mphScattered Clouds
4:54 AM75.0 °F68.0 °F79 %30.01 in10.0 miNNE (30°)12.7 mph21.9 mphScattered Clouds
5:54 AM75.0 °F66.9 °F76 %30.03 in10.0 miNNE (30°)11.5 mph19.6 mphMostly Cloudy
6:54 AM75.0 °F66.0 °F73 %30.04 in10.0 miNE (40°)17.3 mphMostly Cloudy
7:54 AM77.0 °F66.9 °F71 %30.06 in10.0 miNE (40°)16.1 mphPartly Cloudy
8:54 AM79.0 °F66.9 °F66 %30.08 in10.0 miNE (40°)23.0 mph27.6 mphPartly Cloudy
9:54 AM81.0 °F66.9 °F62 %30.08 in10.0 miNNE (30°)23.0 mph28.8 mphScattered Clouds
10:54 AM82.9 °F66.0 °F56 %30.07 in10.0 miNE (40°)21.9 mph28.8 mphClear
11:54 AM82.0 °F66.0 °F58 %30.05 in10.0 miNE (50°)24.2 mphScattered Clouds
12:54 PM84.0 °F68.0 °F58 %30.02 in10.0 miNNE (30°)25.3 mph34.5 mphPartly Cloudy
1:54 PM82.0 °F66.9 °F60 %29.99 in10.0 miNNE (30°)23.0 mph31.1 mphOvercast
2:54 PM82.9 °F64.9 °F54 %29.98 in10.0 miNE (40°)23.0 mph28.8 mphScattered Clouds
3:54 PM82.0 °F66.0 °F58 %29.98 in10.0 miNE (40°)23.0 mph29.9 mphMostly Cloudy
4:54 PM80.1 °F66.9 °F64 %29.97 in10.0 miNE (40°)20.7 mph29.9 mphMostly Cloudy
5:54 PM79.0 °F66.0 °F64 %29.98 in10.0 miNE (40°)19.6 mph27.6 mphScattered Clouds
6:54 PM78.1 °F66.9 °F68 %29.99 in10.0 miNE (50°)13.8 mph24.2 mphScattered Clouds
7:54 PM77.0 °F66.0 °F69 %30.00 in10.0 miENE (60°)16.1 mphScattered Clouds
8:54 PM77.0 °F66.0 °F69 %30.02 in10.0 miENE (60°)12.7 mph23.0 mphScattered Clouds
9:54 PM77.0 °F66.0 °F69 %30.03 in10.0 miENE (60°)17.3 mphScattered Clouds
10:54 PM77.0 °F64.0 °F64 %30.03 in10.0 miENE (70°)18.4 mph24.2 mphScattered Clouds
11:54 PM75.9 °F63.0 °F64 %30.03 in10.0 miENE (60°)16.1 mphScattered Clouds
Hourly data recorded from PGUM, located miles away from Agana, Guam







STORIES FROM OUR PARTNERS